Regional Weather Roundup
Issued by NWS

Home | Current Version | Previous Version | Graphics & Text | Print | Product List | Glossary On
Versions: 1 2 3 4 5 6 7 8 9 10 11 12 13 14 15 16 17 18 19 20 21 22 23 24 25 26 27 28 29 30 31 32 33 34 35 36 37 38 39 40 41 42 43 44 45 46 47 48 49 50
000
ASUS43 KTOP 260008
RWRKS

WEATHER ROUNDUP FOR KANSAS
NATIONAL WEATHER SERVICE GOODLAND KS
700 PM CDT FRI JUL 25 2014

NOTE:  "FAIR" INDICATES FEW OR NO CLOUDS BELOW 12,000 FEET WITH NO
SIGNIFICANT WEATHER AND/OR OBSTRUCTIONS TO VISIBILITY.

KSZ001>006-013>018-027>032-041>047-260100-
NORTHWEST KANSAS

CITY           SKY/WX    TMP DP  RH WIND       PRES   REMARKS
GOODLAND       SUNNY     92  59  33 NE12      29.93S
6HR MIN TEMP:  91; 6HR MAX TEMP:  97;

HAYS           SUNNY     97  66  36 N8        29.78S HX 100
HILL CITY      SUNNY     98  65  33 NE8       29.81R HX 101
6HR MIN TEMP:  98; 6HR MAX TEMP: 104;

RUSSELL        SUNNY    101  59  24 NW3       29.74S HX 101
6HR MIN TEMP:  96; 6HR MAX TEMP: 102;

$$

KSZ061>065-074>080-084>089-260100-
SOUTHWEST KANSAS

CITY           SKY/WX    TMP DP  RH WIND       PRES   REMARKS
DODGE CITY     SUNNY     98  57  25 S7        29.82F HX  97
6HR MIN TEMP:  96; 6HR MAX TEMP: 102;

ELKHART          N/A     99  57  24 S13         N/A  HX  98
GARDEN CITY    MOSUNNY  101  62  27 SE8       29.83F HX 102
6HR MIN TEMP:  95; 6HR MAX TEMP: 103;

GREAT BEND     SUNNY    100  63  28 NW8       29.74S HX 102
LIBERAL        SUNNY    104  52  17 S15       29.84S HX 101
PRATT          SUNNY     97  59  28 S15G24    29.81S HX  96
$$

KSZ066>073-081>083-090>101-260100-
SOUTHEAST KANSAS

CITY           SKY/WX    TMP DP  RH WIND       PRES   REMARKS
CHANUTE        SUNNY     90  73  57 S17G24    29.85S HX  98
6HR MIN TEMP:  90; 6HR MAX TEMP:  94;

COFFEYVILLE    SUNNY     90  75  61 S13G21    29.86R HX 100
6HR MIN TEMP:  89; 6HR MAX TEMP:  94;

HUTCHINSON     MOSUNNY  101  61  26 S14G23    29.77F HX 102
6HR MIN TEMP:  96; 6HR MAX TEMP: 104;

MEDICINE LODGE   N/A    101  59  24 S16G24    29.77F HX 101
NEWTON         MOSUNNY  100  59  25 SW20G25   29.82S HX 100
PARSONS        SUNNY     88  73  61 S12G20    29.87S HX  95
6HR MIN TEMP:  88; 6HR MAX TEMP:  94;

WICHITA INTL   MOSUNNY   99  59  26 S18G25    29.77F HX  99
6HR MIN TEMP:  96; 6HR MAX TEMP: 102;

WICHITA JABRA  SUNNY    100  62  28 S21       29.78F HX 101
6HR MIN TEMP:  96; 6HR MAX TEMP: 104;

WICHITA MCCONL MOSUNNY   98  60  28 S16       29.79F HX  97
WINFIELD       SUNNY     95  68  41 S21       29.81F HX  99
6HR MIN TEMP:  94; 6HR MAX TEMP:  99;

$$

KSZ007>012-019>026-033>040-048>060-102>105-260100-
NORTHEAST KANSAS

CITY           SKY/WX    TMP DP  RH WIND       PRES   REMARKS
CONCORDIA      SUNNY    100  65  31 S10       29.73F HX 103
6HR MIN TEMP:  95; 6HR MAX TEMP: 103;

EMPORIA        MOSUNNY   92  71  50 S16       29.80S HX  98
6HR MIN TEMP:  92; 6HR MAX TEMP:  99;

LAWRENCE       PTSUNNY   96  71  44 S13       29.77F HX 103
6HR MIN TEMP:  92; 6HR MAX TEMP: 102;

MANHATTAN      MOSUNNY  103  66  30 SW10      29.73S HX 107
6HR MIN TEMP: 101; 6HR MAX TEMP: 107;

MARYSVILLE     MOSUNNY  100  70  37 S6        29.72F HX 107
OLATHE IND     MOSUNNY   91  72  53 S15       29.81S HX  98
6HR MIN TEMP:  91; 6HR MAX TEMP:  98;

OLATHE EXE     MOSUNNY   91  72  53 S17G23    29.80S HX  98
6HR MIN TEMP:  91; 6HR MAX TEMP:  96;

SALINA         SUNNY    104  64  27 S17G25    29.73S HX 107
6HR MIN TEMP: 100; 6HR MAX TEMP: 107;

TOPEKA BILLARD PTSUNNY   97  72  44 S12G23    29.75F HX 105
6HR MIN TEMP:  97; 6HR MAX TEMP: 102;

TOPEKA FORBES  PTSUNNY   96  71  44 S16G26    29.76F HX 103
6HR MIN TEMP:  96; 6HR MAX TEMP: 103; 6HR PCP: TRACE;

$$



USA.gov is the U.S. government's official web portal to all federal, state and local government web resources and services.